User: anonymous   Login
Location: Caltech
(34.1382°N, 118.1253°W)
Time: 14:46:26
(UTC-07:00)
Language:

ALOS - Orbit

View from above orbital plane
View from above orbital plane
View from above satellite
View from above satellite

Ground track
Ground track

The orbit data is extracted from the following two-line orbital elements,

1 28931U 06002A   15243.56739176  .00000614  00000-0  13142-3 0  9995
2 28931 097.9267 289.9320 0001020 136.9240 223.2043 14.61955501511657
Epoch (UTC): 31 August 2015 13:37:02
Eccentricity: 0.0001020
inclination: 97.9267°
perigee height: 686 km
apogee height: 687 km
right ascension of ascending node: 289.9320°
argument of perigee: 136.9240°
revolutions per day: 14.61955501
mean anomaly at epoch: 223.2043°
orbit number at epoch: 51165

The dashed part of the orbit path shows where the satellite is in the earth's shadow,  

DLR